Current Weather Conditions by Major Hwy


I-84 West to East [Columbia River Gorge] 700 PM PDT THU JUL 27 2017 ELEVA CITY SKY/WX TMP DP RH WIND PRES REMARKS 10 ASTORIA, OR SUNNY 63 51 65 NW15G22 30.13F 20 KELSO SUNNY 72 55 55 W9 30.08S 40 PORTLAND, OR MOSUNNY 77 53 43 NW8G16 30.04F 30 TROUTDALE, OR SUNNY 78 49 35 VRB6 30.03F 240 THE DALLES, OR SUNNY 84 53 34 NW16G26 29.92S 620 HERMISTON, OR SUNNY 91 43 18 W13 29.86F 1,480 PENDLETON, OR SUNNY 89 24 9 W14 29.93S 2,710 LA GRANDE SUNNY 86 43 22 NW14 29.98S 3,370 BAKER CITY SUNNY 79 55 43 SW5 30.01F 2,190 ONTARIO SUNNY 92 48 22 SE3 29.93F
I-90 West to East 700 PM PDT THU JUL 27 2017 ELEVA CITY SKY/WX TMP DP RH WIND PRES REMARKS 30 SEATAC AIRPORT MOSUNNY 69 55 60 W7 30.11F 1,730 ELLENSBURG SUNNY 79 45 29 NW21G35 29.96S 1,200 MOSES LAKE SUNNY 91 45 20 SW10 29.88S 1,880 SPOKANE GEIGER MOSUNNY 87 34 15 SW14 29.95F
I-82 North West to South East 700 PM PDT THU JUL 27 2017 ELEVA CITY SKY/WX TMP DP RH WIND PRES REMARKS 1,730 ELLENSBURG SUNNY 79 45 29 NW21G35 29.96S 1,050 YAKIMA TC FAIR 87 42 21 N10 29.90R 720 360 PASCO SUNNY 95 42 16 S13 29.85F HX 91 620 HERMISTON, OR SUNNY 91 43 18 W13 29.86F
Hwy97 North to South 700 PM PDT THU JUL 27 2017 ELEVA CITY SKY/WX TMP DP RH WIND PRES REMARKS 850 OMAK SUNNY 91 40 16 SW12 29.83F 630 WENATCHEE SUNNY 89 41 18 NW17 29.88S 1,730 ELLENSBURG SUNNY 79 45 29 NW21G35 29.96S 1,050 YAKIMA TC FAIR 87 42 21 N10 29.90R 1,640 GOLDENDALE* SUNNY 84 53 34 NW16G26 29.92S *From Dallesport Airport Elev 240 3,080 REDMOND SUNNY 87 38 17 NW13 30.01R 4,100 KLAMATH FALLS MOSUNNY 84 51 31 NW15 30.06S
I-5 North to South 700 PM PDT THU JUL 27 2017 ELEVA CITY SKY/WX TMP DP RH WIND PRES REMARKS 150 BELLINGHAM SUNNY 64 54 69 S13 30.09F 100 ARLINGTON CLOUDY 65 55 70 NW5 30.12F 610 EVERETT CLOUDY 64 55 72 NW5 30.13F 30 SEATAC AIRPORT MOSUNNY 69 55 60 W7 30.11F 200 OLYMPIA SUNNY 73 54 51 N5 30.09F 20 KELSO SUNNY 72 55 55 W9 30.08S 100 VANCOUVER SUNNY 77 54 44 NW9 30.04F 40 PORTLAND MOSUNNY 77 53 43 NW8G16 30.04F 200 SALEM SUNNY 80 55 42 NE12 30.02F 360 EUGENE MOSUNNY 79 56 45 NE14 30.02F 510 ROSEBURG SUNNY 84 57 39 NW10 29.99S 1,300 MEDFORD MOSUNNY 92 52 25 N14 29.92S
Data from:
http://www.wrh.noaa.gov/sew/get.php?pil=RWR&sid=OR&version=0&format=printer
http://www.wrh.noaa.gov/sew/get.php?pil=RWR&sid=WA&version=0&format=printer

Current Observations

Washington State Current Weather Observations   …  Oregon State Current Weather Observation



48 Hour Forecast

Seattle  …  Vancouver  …  Portland
————————————————————————————————————————
Bend  …  Spokane  …  Richland  …  Pendleton  …  Blue Mountains I-84  …  Yakima
————————————————————————————————————————
Goldendale, Washington Higher Elevations  …  Dallesport Airport - Goldendale  …  Bingen - White Salmon - Hood River  …  Index


Top of Page